Regional Weather Roundup
Issued by NWS State College, PA

Home | Current Version | Previous Version | Graphics & Text | Print | Product List | Glossary Off
Versions: 1 2 3 4 5 6 7 8 9 10 11 12 13 14 15 16 17 18 19 20 21 22 23 24 25 26 27 28 29 30 31 32 33 34 35 36 37 38 39 40 41 42 43 44 45 46 47 48 49 50

000
ASUS41 KCTP 191003
RWRCTP

REGIONAL WEATHER ROUNDUP
NATIONAL WEATHER SERVICE STATE COLLEGE PA
500 AM EST FRI DEC 19 2014

Note: "fair" indicates few or no clouds below 12,000 feet with no
significant weather and/or obstructions to visibility.

* = STATION THAT DOES NOT REPORT PRECIPITATION /E.G. RAIN...SNOW...ETC/
    THUNDER OR FOG.

PAZ002>004-007>009-013>016-020>023-029>032-191100-
WESTERN PENNSYLVANIA

CITY           SKY/WX    TMP DP  RH WIND       PRES   REMARKS
ERIE           CLOUDY    31  23  72 NW9G16    30.14S
MEADVILLE      CLOUDY    27  25  92 W7        30.10S FOG
FRANKLIN*      CLOUDY    27  23  86 NW8G17    30.10S
NEW CASTLE       N/A     28  28 100 W7        30.15S FOG
BEAVER COUNTY  NOT AVBL
BUTLER*        CLOUDY    27  25  93 W8        30.14S
PITTSBURGH INT FRZ DRZL  27  25  92 W7        30.14S
PITTSBURGH     CLOUDY    27  21  78 W9        30.13S
INDIANA*       CLOUDY    27  27 100 W10       30.14R FOG
LATROBE        CLOUDY    27  25  93 SW8       30.15S
WASHINGTON CO* NOT AVBL
$$

PAZ004>006-010>012-017>019-024>028-033>037-041-042-045-046-049>053-191100-
CENTRAL PENNSYLVANIA

CITY           SKY/WX    TMP DP  RH WIND       PRES   REMARKS
BRADFORD       CLOUDY    25  21  85 NW16G25   30.00S WCI  12
DUBOIS         CLOUDY    27  25  92 W10       30.04R
CLEARFIELD     CLOUDY    28  24  85 W7        30.05S
JOHNSTOWN      CLOUDY    23  21  92 W10       30.03S FOG     WCI  12
ALTOONA        CLOUDY    28  23  81 W14G23    30.07R
STATE COLLEGE  CLOUDY    30  25  80 W9        30.05S
WILLIAMSPORT   CLOUDY    34  26  72 W7        30.03S
SELINSGROVE    CLOUDY    35  24  64 W8        30.06R
FT INDIANTOWN  CLOUDY    34  24  66 W8        30.04F
CAPITAL CITY   CLOUDY    34  24  67 W12       30.07S
HARRISBURG     CLOUDY    34  24  67 NW16      30.06S
YORK           CLOUDY    33  24  69 W6        30.07S
$$

PAZ038>040-043-044-047-048-054-055-060>062-067>071-191100-
EASTERN PENNSYLVANIA

CITY           SKY/WX    TMP DP  RH WIND       PRES   REMARKS
SCRANTON       CLOUDY    32  27  81 NW13      29.99R
MOUNT POCONO   MIX PCPN  28  23  81 NW14G26   29.91S
ALLENTOWN      CLOUDY    36  23  59 W7        30.00F
QUAKERTOWN*    CLOUDY    36  25  64 W7        30.01S
READING        CLOUDY    35  24  64 W7        30.03S
LANCASTER      CLOUDY    33  24  69 W12       30.04F
COATESVILLE    CLOUDY    34  28  80 NW10      30.03S
POTTSTOWN      CLOUDY    34  25  69 W5        30.04S
BLUE BELL      CLOUDY    36  28  75 W6        30.01S
DOYLESTOWN     CLOUDY    34  25  69 NW8       30.00S
WILLOW GROVE   NOT AVBL
NORTH PHILA    CLOUDY    38  23  55 W12       30.04S
PHILADELPHIA   CLOUDY    37  25  61 W12       30.05S
$$



USA.gov is the U.S. government's official web portal to all federal, state and local government web resources and services.